DELTA 1 DEB, 7034

Orbit data source: Space-Track

DELTA 1 DEB, 7034 is space debris in SSO originally from a launch on Tue, 06 Nov 1973 UTC launched from the Air Force Western Test Range (AFWTR). Debris objects in space refer to the collection of defunct objects orbiting the Earth. Examples of debris include non-operational satellites, rocket bodies, and fragments generated from explosions, collisions, or faulty payload assembly.

Loading next visibility...
Identifier
7034, 1973-086AA
Orbit
SSO
Country
Flag of USUS
Related business
Manufacturer
Unknown
Mission
Spacecraft
Bus & Motor
Unknown
Mass
Unknown
Launch date (UTC)
1973-11-06 (52 years ago)
Launch vehicle
Unknown
Launch site
Air Force Western Test Range (AFWTR)
Object type
Payload
Rocket body
Debris
Shape & HBR
Unknown
Radar Cross Section
Small (<0.1 m²)

Expand to show TLE details & history
Last TLE update: 12 hours ago

TLE from 12 hours ago
0 DELTA 1 DEB
1 07034U 73086AA  25259.40805072  .00000004  00000-0  35252-3 0  9991
2 07034 102.0880 235.6505 0015991 157.8239 357.4086 12.43819447351882
Epoch: 2025-09-16T09:47Z
TLE epoch observation values (Epoch: 2025-09-16T09:47:35.582Z)
Latitude
24.21611°
Longitude
-81.34638°
Altitude
1,480.489 km
Speed
7.131 km/s
True Right ascension
04h 04m 36s
True Declination
24° 05' 58"
Sunlit
Object was in daylight at epoch
Visualization orbit readout
Latitude
Unknown
Longitude
Unknown
Altitude
Unknown
Speed
Unknown
Apparent Right ascension
Unknown
Apparent Declination
Unknown
Sunlit
N/A
Visualization observer readout
Local Sidereal Time
14:29:05
Azimuth
Unknown
Elevation
Unknown
Doppler factor
Unknown
Orbital elements
Apogee altitude
1,500.607 km
Perigee altitude
1,475.45 km
Semi-major axis
7,866.166 km
Eccentricity
0.0016
Inclination
102.088°
RAAN
235.6505°
Arg. of periapsis
157.8239°
True anomaly
357.4003°
Mean anomaly
357.4086°
Eccentric anomaly
357.40445°
Mean motion
3.11099 °/min
Orbital period
115.72 mins
BSTAR
0.00035252
Loading maneuver chart data...
Computing Atmospheric mass density...
Loading historical data...
Loading historical data...
Loading historical data...
Loading historical data...
Loading historical data...
Loading historical data...
Loading historical data...

Documentation

Showing up to 5 results
|